Location: Truman State University Observatory
(40.1787°N, 92.6006°W)
Time: 20:05:28
(UTC-06:00)

N. Korean satellite - Visible Passes

Search period start: 23 February 2018 00:00
Search period end: 05 March 2018 00:00
Orbit: 459 x 514 km, 97.2° (Epoch: 23 February)

Date Brightness Start Highest point End Pass type
(mag) Time Alt. Az. Time Alt. Az. Time Alt. Az.
23 Feb 8.5 06:25:10 10° NNE 06:28:38 37° E 06:32:06 10° SSE visible
23 Feb 8.6 18:34:15 10° SSW 18:37:23 33° W 18:40:35 10° NNW visible
24 Feb 9.9 06:02:03 10° NE 06:04:47 19° E 06:07:31 10° SE visible
26 Feb 9.9 18:57:21 10° SW 18:59:43 17° W 19:02:07 10° NW visible
27 Feb 8.5 18:32:39 10° SSW 18:35:50 34° W 18:39:05 10° NNW visible
28 Feb 10.0 06:00:33 10° NE 06:03:15 19° E 06:05:58 10° SE visible
02 Mar 9.8 18:55:40 10° SW 18:58:08 18° W 19:00:39 10° NW visible
03 Mar 8.4 18:31:00 10° SSW 18:34:14 36° W 18:37:34 10° NNW visible
04 Mar 10.0 05:59:02 10° NE 06:01:41 18° E 06:04:21 10° SE visible
